Location: Unspecified
(48.5670°N, 0.0000°E)
Time: 11:01:52
(UTC+00:00)

Vanguard 2 Rocket - Pass Details

Date: 01 September 2019
Orbit: 554 x 3327 km, 32.9° (Epoch: 16 September)

Event Time Altitude Azimuth Distance (km) Brightness Sun altitude
Rises 00:42:17 0° 223° (SW) 3,787 - -32.2°
Reaches altitude 10° 00:44:58 10° 210° (SSW) 3,139 - -32.1°
Maximum altitude 00:51:34 28° 155° (SSE) 2,760 - -31.9°
Exits shadow 00:54:22 25° 133° (SE) 3,180 9.4 -31.8°
Drops below altitude 10° 01:01:38 10° 105° (ESE) 4,937 10.6 -31.4°
Sets 01:07:12 0° 96° (E) 6,420 11.4 -31.1°
